Time,TemperatureF,DewpointF,PressureIn,WindDirection,WindDirectionDegrees,WindSpeedMPH,WindSpeedGustMPH,Humidity,HourlyPrecipIn,Conditions,Clouds,dailyrainin,SoftwareType,DateUTC
2013-04-16 00:02:00,44.5,36.3,29.87,NNE,16,4.0,-999.0,59,0.00,,,0.00,Custom/Perl,2013-04-16 05:02:00,
2013-04-16 00:07:00,44.4,36.2,29.87,North,11,1.0,-999.0,59,0.00,,,0.00,Custom/Perl,2013-04-16 05:07:00,
2013-04-16 00:13:00,44.2,36.2,29.88,NNE,25,4.0,-999.0,60,0.00,,,0.00,Custom/Perl,2013-04-16 05:13:00,
2013-04-16 00:18:00,44.0,36.0,29.88,NW,314,0.0,-999.0,60,0.00,,,0.00,Custom/Perl,2013-04-16 05:18:00,
2013-04-16 00:23:00,43.7,35.9,29.89,NW,313,0.0,-999.0,61,0.00,,,0.00,Custom/Perl,2013-04-16 05:23:00,
2013-04-16 00:28:00,43.4,35.8,29.90,North,3,0.0,-999.0,62,0.00,,,0.00,Custom/Perl,2013-04-16 05:28:00,
2013-04-16 00:34:00,43.1,35.7,29.90,NNW,335,2.0,-999.0,63,0.00,,,0.00,Custom/Perl,2013-04-16 05:34:00,
2013-04-16 00:39:00,42.8,35.6,29.90,NE,34,1.0,-999.0,64,0.00,,,0.00,Custom/Perl,2013-04-16 05:39:00,
2013-04-16 00:44:00,42.7,35.5,29.90,NE,43,1.0,-999.0,64,0.00,,,0.00,Custom/Perl,2013-04-16 05:44:00,
2013-04-16 00:50:00,42.6,35.4,29.90,NNE,20,1.0,-999.0,64,0.00,,,0.00,Custom/Perl,2013-04-16 05:50:00,
2013-04-16 00:55:00,42.5,35.5,29.90,SE,140,0.0,-999.0,65,0.00,,,0.00,Custom/Perl,2013-04-16 05:55:00,
2013-04-16 01:00:00,42.2,35.4,29.90,NE,41,0.0,-999.0,66,0.00,,,0.00,Custom/Perl,2013-04-16 06:00:00,
2013-04-16 01:05:00,42.2,35.2,29.90,NNE,22,1.0,-999.0,65,0.00,,,0.00,Custom/Perl,2013-04-16 06:05:00,
2013-04-16 01:11:00,42.0,35.2,29.90,West,269,0.0,-999.0,66,0.00,,,0.00,Custom/Perl,2013-04-16 06:11:00,
2013-04-16 01:16:00,42.0,35.2,29.89,NW,307,1.0,-999.0,66,0.00,,,0.00,Custom/Perl,2013-04-16 06:16:00,
2013-04-16 01:21:00,41.9,35.1,29.89,ENE,70,1.0,-999.0,66,0.00,,,0.00,Custom/Perl,2013-04-16 06:21:00,
2013-04-16 01:26:00,41.8,35.0,29.89,North,11,1.0,-999.0,66,0.00,,,0.00,Custom/Perl,2013-04-16 06:26:00,
2013-04-16 01:32:00,41.6,35.0,29.89,WSW,252,1.0,-999.0,67,0.00,,,0.00,Custom/Perl,2013-04-16 06:32:00,
2013-04-16 01:37:00,41.6,35.0,29.89,SE,134,0.0,-999.0,67,0.00,,,0.00,Custom/Perl,2013-04-16 06:37:00,
2013-04-16 01:42:00,41.5,34.9,29.89,NNE,32,4.0,-999.0,67,0.00,,,0.00,Custom/Perl,2013-04-16 06:42:00,
2013-04-16 01:48:00,41.5,34.9,29.88,NNE,16,2.0,-999.0,67,0.00,,,0.00,Custom/Perl,2013-04-16 06:48:00,
2013-04-16 01:53:00,41.4,34.8,29.89,NNE,27,1.0,-999.0,67,0.00,,,0.00,Custom/Perl,2013-04-16 06:53:00,
2013-04-16 01:58:00,41.2,34.8,29.89,NE,53,2.0,-999.0,68,0.00,,,0.00,Custom/Perl,2013-04-16 06:58:00,
2013-04-16 02:03:00,41.0,34.8,29.89,SW,226,1.0,-999.0,69,0.00,,,0.00,Custom/Perl,2013-04-16 07:03:00,
2013-04-16 02:09:00,41.2,35.0,29.88,WSW,249,1.0,-999.0,69,0.00,,,0.00,Custom/Perl,2013-04-16 07:09:00,
2013-04-16 02:14:00,41.4,35.0,29.88,NNE,14,6.0,-999.0,68,0.00,,,0.00,Custom/Perl,2013-04-16 07:14:00,
2013-04-16 02:19:00,41.8,35.4,29.88,WSW,247,1.0,-999.0,68,0.00,,,0.00,Custom/Perl,2013-04-16 07:19:00,
2013-04-16 02:24:00,42.0,35.6,29.88,NE,43,1.0,-999.0,68,0.00,,,0.00,Custom/Perl,2013-04-16 07:24:00,
2013-04-16 02:30:00,42.2,35.8,29.89,West,278,0.0,-999.0,68,0.00,,,0.00,Custom/Perl,2013-04-16 07:30:00,
2013-04-16 02:35:00,42.3,35.9,29.89,NNE,30,3.0,-999.0,68,0.00,,,0.00,Custom/Perl,2013-04-16 07:35:00,
2013-04-16 02:40:00,42.4,35.8,29.89,NNE,31,2.0,-999.0,67,0.00,,,0.00,Custom/Perl,2013-04-16 07:40:00,
2013-04-16 02:45:00,42.5,35.9,29.89,NNE,26,1.0,-999.0,67,0.00,,,0.00,Custom/Perl,2013-04-16 07:45:00,
2013-04-16 02:50:00,42.6,36.0,29.90,North,7,0.0,-999.0,67,0.00,,,0.00,Custom/Perl,2013-04-16 07:50:00,
2013-04-16 02:56:00,42.8,36.2,29.90,East,82,4.0,-999.0,67,0.00,,,0.00,Custom/Perl,2013-04-16 07:56:00,
2013-04-16 03:01:00,42.8,36.2,29.90,NNE,23,2.0,-999.0,67,0.00,,,0.00,Custom/Perl,2013-04-16 08:01:00,
2013-04-16 03:06:00,42.8,36.2,29.90,North,6,6.0,-999.0,67,0.00,,,0.00,Custom/Perl,2013-04-16 08:06:00,
2013-04-16 03:11:00,42.8,36.4,29.89,NW,326,2.0,-999.0,68,0.00,,,0.00,Custom/Perl,2013-04-16 08:11:00,
2013-04-16 03:17:00,42.7,36.3,29.90,SSE,152,1.0,-999.0,68,0.00,,,0.00,Custom/Perl,2013-04-16 08:17:00,
2013-04-16 03:22:00,42.7,36.3,29.91,SSE,151,4.0,-999.0,68,0.00,,,0.00,Custom/Perl,2013-04-16 08:22:00,
2013-04-16 03:27:00,42.7,36.3,29.90,NNW,342,2.0,-999.0,68,0.00,,,0.00,Custom/Perl,2013-04-16 08:27:00,
2013-04-16 03:32:00,42.7,36.3,29.90,WNW,285,2.0,-999.0,68,0.00,,,0.00,Custom/Perl,2013-04-16 08:32:00,
2013-04-16 03:37:00,42.8,36.4,29.91,ESE,109,6.0,-999.0,68,0.00,,,0.00,Custom/Perl,2013-04-16 08:37:00,
2013-04-16 03:43:00,42.8,36.4,29.91,SSE,166,2.0,-999.0,68,0.00,,,0.00,Custom/Perl,2013-04-16 08:43:00,
2013-04-16 03:48:00,42.8,36.4,29.91,SSW,193,1.0,-999.0,68,0.00,,,0.00,Custom/Perl,2013-04-16 08:48:00,
2013-04-16 03:53:00,42.8,36.4,29.92,WNW,285,1.0,-999.0,68,0.00,,,0.00,Custom/Perl,2013-04-16 08:53:00,
2013-04-16 03:58:00,42.8,36.4,29.92,ENE,67,3.0,-999.0,68,0.00,,,0.00,Custom/Perl,2013-04-16 08:58:00,
2013-04-16 04:04:00,42.8,36.4,29.92,SW,217,4.0,-999.0,68,0.00,,,0.00,Custom/Perl,2013-04-16 09:04:00,
2013-04-16 04:09:00,42.8,36.4,29.92,NNE,28,2.0,-999.0,68,0.00,,,0.00,Custom/Perl,2013-04-16 09:09:00,
2013-04-16 04:14:00,42.8,36.6,29.92,SSW,203,2.0,-999.0,69,0.00,,,0.00,Custom/Perl,2013-04-16 09:14:00,
2013-04-16 04:19:00,42.5,37.1,29.92,WSW,250,1.0,-999.0,73,0.00,,,0.00,Custom/Perl,2013-04-16 09:19:00,
2013-04-16 04:25:00,42.3,36.7,29.92,West,264,3.0,-999.0,72,0.00,,,0.00,Custom/Perl,2013-04-16 09:25:00,
2013-04-16 04:30:00,42.1,36.5,29.92,NNW,331,3.0,-999.0,72,0.00,,,0.00,Custom/Perl,2013-04-16 09:30:00,
2013-04-16 04:35:00,42.1,36.7,29.94,NNW,340,2.0,-999.0,73,0.00,,,0.00,Custom/Perl,2013-04-16 09:35:00,
2013-04-16 04:40:00,42.0,36.6,29.94,WSW,243,1.0,-999.0,73,0.00,,,0.00,Custom/Perl,2013-04-16 09:40:00,
2013-04-16 04:45:00,42.0,36.6,29.94,NE,49,2.0,-999.0,73,0.00,,,0.00,Custom/Perl,2013-04-16 09:45:00,
2013-04-16 04:51:00,42.1,36.7,29.94,NNW,330,6.0,-999.0,73,0.00,,,0.00,Custom/Perl,2013-04-16 09:51:00,
2013-04-16 04:56:00,42.1,36.7,29.94,SSW,197,6.0,-999.0,73,0.00,,,0.00,Custom/Perl,2013-04-16 09:56:00,
2013-04-16 05:01:00,42.2,37.0,29.94,West,259,1.0,-999.0,74,0.00,,,0.00,Custom/Perl,2013-04-16 10:01:00,
2013-04-16 05:06:00,42.1,36.7,29.94,South,171,2.0,-999.0,73,0.00,,,0.00,Custom/Perl,2013-04-16 10:06:00,
2013-04-16 05:12:00,42.1,36.7,29.94,NNE,18,5.0,-999.0,73,0.00,,,0.00,Custom/Perl,2013-04-16 10:12:00,
2013-04-16 05:17:00,42.1,36.7,29.94,ENE,75,8.0,-999.0,73,0.00,,,0.00,Custom/Perl,2013-04-16 10:17:00,
2013-04-16 05:22:00,42.1,36.5,29.94,NE,49,3.0,-999.0,72,0.00,,,0.00,Custom/Perl,2013-04-16 10:22:00,
2013-04-16 05:27:00,42.1,36.5,29.94,NE,39,6.0,-999.0,72,0.00,,,0.00,Custom/Perl,2013-04-16 10:27:00,
2013-04-16 05:32:00,42.1,36.7,29.93,NE,37,2.0,-999.0,73,0.00,,,0.00,Custom/Perl,2013-04-16 10:32:00,
2013-04-16 05:38:00,42.1,36.5,29.93,North,356,2.0,-999.0,72,0.00,,,0.00,Custom/Perl,2013-04-16 10:38:00,
2013-04-16 05:43:00,42.1,36.5,29.94,North,3,3.0,-999.0,72,0.00,,,0.00,Custom/Perl,2013-04-16 10:43:00,
2013-04-16 05:48:00,42.0,36.4,29.95,NNE,17,5.0,-999.0,72,0.00,,,0.00,Custom/Perl,2013-04-16 10:48:00,
2013-04-16 05:54:00,42.0,36.4,29.95,NNE,23,4.0,-999.0,72,0.00,,,0.00,Custom/Perl,2013-04-16 10:54:00,
2013-04-16 05:59:00,42.0,36.4,29.96,WNW,290,3.0,-999.0,72,0.00,,,0.00,Custom/Perl,2013-04-16 10:59:00,
2013-04-16 06:04:00,41.9,36.3,29.95,NW,321,1.0,-999.0,72,0.00,,,0.00,Custom/Perl,2013-04-16 11:04:00,
2013-04-16 06:09:00,41.9,36.3,29.94,SSE,167,2.0,-999.0,72,0.00,,,0.00,Custom/Perl,2013-04-16 11:09:00,
2013-04-16 06:14:00,41.9,36.1,29.95,North,9,3.0,-999.0,71,0.00,,,0.00,Custom/Perl,2013-04-16 11:14:00,
2013-04-16 06:20:00,41.9,36.3,29.95,NNE,14,4.0,-999.0,72,0.00,,,0.00,Custom/Perl,2013-04-16 11:20:00,
2013-04-16 06:25:00,41.9,36.1,29.95,SW,220,6.0,-999.0,71,0.00,,,0.00,Custom/Perl,2013-04-16 11:25:00,
2013-04-16 06:30:00,42.0,36.4,29.97,NNW,327,2.0,-999.0,72,0.00,,,0.00,Custom/Perl,2013-04-16 11:30:00,
2013-04-16 06:36:00,42.0,36.2,29.97,NNE,13,2.0,-999.0,71,0.00,,,0.00,Custom/Perl,2013-04-16 11:36:00,
2013-04-16 06:41:00,42.0,35.8,29.97,NNE,25,3.0,-999.0,69,0.00,,,0.00,Custom/Perl,2013-04-16 11:41:00,
2013-04-16 06:46:00,42.0,35.6,29.97,WSW,240,1.0,-999.0,68,0.00,,,0.00,Custom/Perl,2013-04-16 11:46:00,
2013-04-16 06:51:00,41.9,35.3,29.97,ENE,75,2.0,-999.0,67,0.00,,,0.00,Custom/Perl,2013-04-16 11:51:00,
2013-04-16 06:57:00,41.9,35.1,29.99,ESE,106,3.0,-999.0,66,0.00,,,0.00,Custom/Perl,2013-04-16 11:57:00,
2013-04-16 07:02:00,41.9,35.7,29.99,North,357,2.0,-999.0,69,0.00,,,0.00,Custom/Perl,2013-04-16 12:02:00,
2013-04-16 07:07:00,41.8,35.8,29.99,NNE,33,3.0,-999.0,70,0.00,,,0.00,Custom/Perl,2013-04-16 12:07:00,
2013-04-16 07:12:00,41.6,35.4,29.99,NE,46,3.0,-999.0,69,0.00,,,0.00,Custom/Perl,2013-04-16 12:12:00,
2013-04-16 07:18:00,41.5,35.3,30.00,WNW,299,1.0,-999.0,69,0.00,,,0.00,Custom/Perl,2013-04-16 12:18:00,
2013-04-16 07:23:00,41.5,35.3,30.00,North,10,4.0,-999.0,69,0.00,,,0.00,Custom/Perl,2013-04-16 12:23:00,
2013-04-16 07:28:00,41.3,35.1,29.99,SE,137,2.0,-999.0,69,0.00,,,0.00,Custom/Perl,2013-04-16 12:28:00,
2013-04-16 07:33:00,41.2,35.0,29.98,NE,50,4.0,-999.0,69,0.00,,,0.00,Custom/Perl,2013-04-16 12:33:00,
2013-04-16 07:38:00,41.2,35.0,29.99,NE,34,3.0,-999.0,69,0.00,,,0.00,Custom/Perl,2013-04-16 12:38:00,
2013-04-16 07:44:00,41.2,35.2,30.00,NW,314,3.0,-999.0,70,0.00,,,0.00,Custom/Perl,2013-04-16 12:44:00,
2013-04-16 07:49:00,41.2,35.2,30.00,NNE,31,2.0,-999.0,70,0.00,,,0.00,Custom/Perl,2013-04-16 12:49:00,
2013-04-16 07:54:00,41.2,35.2,30.00,ENE,61,2.0,-999.0,70,0.00,,,0.00,Custom/Perl,2013-04-16 12:54:00,
2013-04-16 07:59:00,41.2,35.2,30.01,NNE,12,3.0,-999.0,70,0.00,,,0.00,Custom/Perl,2013-04-16 12:59:00,
2013-04-16 08:05:00,41.2,35.4,30.01,NW,319,1.0,-999.0,71,0.00,,,0.00,Custom/Perl,2013-04-16 13:05:00,
2013-04-16 08:10:00,41.1,35.3,30.00,NNE,30,2.0,-999.0,71,0.00,,,0.00,Custom/Perl,2013-04-16 13:10:00,
2013-04-16 08:15:00,41.2,35.4,30.00,NE,36,2.0,-999.0,71,0.00,,,0.00,Custom/Perl,2013-04-16 13:15:00,
2013-04-16 08:20:00,41.2,35.6,30.01,North,4,4.0,-999.0,72,0.00,,,0.00,Custom/Perl,2013-04-16 13:20:00,
2013-04-16 08:25:00,41.2,35.6,30.00,NNE,17,3.0,-999.0,72,0.00,,,0.00,Custom/Perl,2013-04-16 13:25:00,
2013-04-16 08:31:00,41.1,35.5,30.00,NW,315,0.0,-999.0,72,0.00,,,0.00,Custom/Perl,2013-04-16 13:31:00,
2013-04-16 08:36:00,41.2,35.6,30.00,WNW,285,1.0,-999.0,72,0.00,,,0.00,Custom/Perl,2013-04-16 13:36:00,
2013-04-16 08:41:00,41.3,35.5,30.01,SW,225,2.0,-999.0,71,0.00,,,0.00,Custom/Perl,2013-04-16 13:41:00,
2013-04-16 08:46:00,41.4,35.6,30.01,ENE,67,8.0,-999.0,71,0.00,,,0.00,Custom/Perl,2013-04-16 13:46:00,
2013-04-16 08:52:00,41.4,35.4,30.01,NE,42,2.0,-999.0,70,0.00,,,0.00,Custom/Perl,2013-04-16 13:52:00,
2013-04-16 08:57:00,41.4,35.4,30.01,NE,42,3.0,-999.0,70,0.00,,,0.00,Custom/Perl,2013-04-16 13:57:00,
2013-04-16 09:02:00,41.5,35.3,30.01,East,82,3.0,-999.0,69,0.00,,,0.00,Custom/Perl,2013-04-16 14:02:00,
2013-04-16 09:07:00,41.5,35.3,30.01,WNW,302,0.0,-999.0,69,0.00,,,0.00,Custom/Perl,2013-04-16 14:07:00,
2013-04-16 09:12:00,41.5,35.1,30.01,SE,140,2.0,-999.0,68,0.00,,,0.00,Custom/Perl,2013-04-16 14:12:00,
2013-04-16 09:18:00,41.7,35.5,30.01,WNW,293,1.0,-999.0,69,0.00,,,0.00,Custom/Perl,2013-04-16 14:18:00,
2013-04-16 09:23:00,41.7,35.1,30.01,NNW,328,3.0,-999.0,67,0.00,,,0.00,Custom/Perl,2013-04-16 14:23:00,
2013-04-16 09:28:00,41.7,35.1,30.01,ESE,104,6.0,-999.0,67,0.00,,,0.00,Custom/Perl,2013-04-16 14:28:00,
2013-04-16 09:34:00,41.7,35.1,30.01,NE,53,2.0,-999.0,67,0.00,,,0.00,Custom/Perl,2013-04-16 14:34:00,
2013-04-16 09:39:00,41.7,34.9,30.01,NNW,347,3.0,-999.0,66,0.00,,,0.00,Custom/Perl,2013-04-16 14:39:00,
2013-04-16 09:44:00,41.8,35.0,30.01,WNW,298,2.0,-999.0,66,0.00,,,0.00,Custom/Perl,2013-04-16 14:44:00,
2013-04-16 09:49:00,41.9,35.3,30.01,NE,46,2.0,-999.0,67,0.00,,,0.00,Custom/Perl,2013-04-16 14:49:00,
2013-04-16 09:55:00,42.2,35.4,30.01,NNW,335,3.0,-999.0,66,0.00,,,0.00,Custom/Perl,2013-04-16 14:55:00,
2013-04-16 10:00:00,42.2,35.4,30.01,NE,46,4.0,-999.0,66,0.00,,,0.00,Custom/Perl,2013-04-16 15:00:00,
2013-04-16 10:05:00,42.2,35.2,30.01,ESE,115,3.0,-999.0,65,0.00,,,0.00,Custom/Perl,2013-04-16 15:05:00,
2013-04-16 10:11:00,42.3,35.5,30.01,South,176,1.0,-999.0,66,0.00,,,0.00,Custom/Perl,2013-04-16 15:11:00,
2013-04-16 10:16:00,42.5,35.5,30.01,NE,54,5.0,-999.0,65,0.00,,,0.00,Custom/Perl,2013-04-16 15:16:00,
2013-04-16 10:21:00,42.6,35.6,30.01,NNE,27,1.0,-999.0,65,0.00,,,0.00,Custom/Perl,2013-04-16 15:21:00,
2013-04-16 10:27:00,42.9,35.9,30.01,NNW,345,3.0,-999.0,65,0.00,,,0.00,Custom/Perl,2013-04-16 15:27:00,
2013-04-16 10:32:00,43.1,36.1,30.02,NNE,15,3.0,-999.0,65,0.00,,,0.00,Custom/Perl,2013-04-16 15:32:00,
2013-04-16 10:37:00,43.2,36.0,30.02,SSW,203,4.0,-999.0,64,0.00,,,0.00,Custom/Perl,2013-04-16 15:37:00,
2013-04-16 10:42:00,43.3,35.9,30.01,SSW,200,5.0,-999.0,63,0.00,,,0.00,Custom/Perl,2013-04-16 15:42:00,
2013-04-16 10:48:00,43.3,35.9,30.01,NW,305,3.0,-999.0,63,0.00,,,0.00,Custom/Perl,2013-04-16 15:48:00,
2013-04-16 10:53:00,43.3,36.1,30.01,NNW,338,0.0,-999.0,64,0.00,,,0.00,Custom/Perl,2013-04-16 15:53:00,
2013-04-16 10:58:00,43.5,36.3,30.02,SSE,167,2.0,-999.0,64,0.00,,,0.00,Custom/Perl,2013-04-16 15:58:00,
2013-04-16 11:04:00,43.6,36.0,30.02,SW,229,2.0,-999.0,62,0.00,,,0.00,Custom/Perl,2013-04-16 16:04:00,
2013-04-16 11:09:00,43.7,36.3,30.01,NE,34,3.0,-999.0,63,0.00,,,0.00,Custom/Perl,2013-04-16 16:09:00,
2013-04-16 11:14:00,43.9,36.3,30.01,NNE,18,4.0,-999.0,62,0.00,,,0.00,Custom/Perl,2013-04-16 16:14:00,
2013-04-16 11:19:00,43.9,36.3,30.02,NNE,32,3.0,-999.0,62,0.00,,,0.00,Custom/Perl,2013-04-16 16:19:00,
2013-04-16 11:25:00,43.9,36.5,30.03,North,7,1.0,-999.0,63,0.00,,,0.00,Custom/Perl,2013-04-16 16:25:00,
2013-04-16 11:30:00,44.1,36.5,30.03,North,357,2.0,-999.0,62,0.00,,,0.00,Custom/Perl,2013-04-16 16:30:00,
2013-04-16 11:35:00,44.1,36.5,30.03,NNE,13,6.0,-999.0,62,0.00,,,0.00,Custom/Perl,2013-04-16 16:35:00,
2013-04-16 11:40:00,44.2,36.6,30.02,SSW,199,3.0,-999.0,62,0.00,,,0.00,Custom/Perl,2013-04-16 16:40:00,
2013-04-16 11:45:00,44.4,36.4,30.01,East,86,4.0,-999.0,60,0.00,,,0.00,Custom/Perl,2013-04-16 16:45:00,
2013-04-16 11:51:00,44.6,36.8,30.01,WNW,296,3.0,-999.0,61,0.00,,,0.00,Custom/Perl,2013-04-16 16:51:00,
2013-04-16 11:56:00,44.5,36.7,30.01,South,180,1.0,-999.0,61,0.00,,,0.00,Custom/Perl,2013-04-16 16:56:00,
2013-04-16 12:01:00,44.7,36.5,30.01,NNW,330,5.0,-999.0,59,0.00,,,0.00,Custom/Perl,2013-04-16 17:01:00,
2013-04-16 12:07:00,44.9,36.7,30.01,NW,311,3.0,-999.0,59,0.00,,,0.00,Custom/Perl,2013-04-16 17:07:00,
2013-04-16 12:12:00,45.1,36.9,30.01,WSW,245,3.0,-999.0,59,0.00,,,0.00,Custom/Perl,2013-04-16 17:12:00,
2013-04-16 12:17:00,45.1,36.9,30.00,ENE,78,4.0,-999.0,59,0.00,,,0.00,Custom/Perl,2013-04-16 17:17:00,
2013-04-16 12:22:00,45.2,36.8,30.01,SW,224,1.0,-999.0,58,0.00,,,0.00,Custom/Perl,2013-04-16 17:22:00,
2013-04-16 12:27:00,45.2,37.0,30.01,NE,43,5.0,-999.0,59,0.00,,,0.00,Custom/Perl,2013-04-16 17:27:00,
2013-04-16 12:32:00,45.1,36.5,30.00,NNW,341,4.0,-999.0,57,0.00,,,0.00,Custom/Perl,2013-04-16 17:32:00,
2013-04-16 12:38:00,45.3,36.9,30.00,NNW,346,1.0,-999.0,58,0.00,,,0.00,Custom/Perl,2013-04-16 17:38:00,
2013-04-16 12:43:00,45.8,37.0,30.00,ESE,113,3.0,-999.0,56,0.00,,,0.00,Custom/Perl,2013-04-16 17:43:00,
2013-04-16 12:48:00,45.7,36.9,30.00,ESE,108,4.0,-999.0,56,0.00,,,0.00,Custom/Perl,2013-04-16 17:48:00,
2013-04-16 12:53:00,45.8,37.2,29.99,NW,305,4.0,-999.0,57,0.00,,,0.00,Custom/Perl,2013-04-16 17:53:00,
2013-04-16 12:59:00,45.8,37.0,29.99,North,4,6.0,-999.0,56,0.00,,,0.00,Custom/Perl,2013-04-16 17:59:00,
2013-04-16 13:04:00,46.0,37.2,29.99,NNW,342,4.0,-999.0,56,0.00,,,0.00,Custom/Perl,2013-04-16 18:04:00,
2013-04-16 13:09:00,45.9,37.1,29.99,WSW,255,2.0,-999.0,56,0.00,,,0.00,Custom/Perl,2013-04-16 18:09:00,
2013-04-16 13:14:00,45.8,37.0,29.99,NNE,13,3.0,-999.0,56,0.00,,,0.00,Custom/Perl,2013-04-16 18:14:00,
2013-04-16 13:20:00,46.0,37.6,29.99,NE,49,2.0,-999.0,58,0.00,,,0.00,Custom/Perl,2013-04-16 18:20:00,
2013-04-16 13:25:00,46.2,37.6,29.99,ENE,63,2.0,-999.0,57,0.00,,,0.00,Custom/Perl,2013-04-16 18:25:00,
2013-04-16 13:30:00,46.4,37.8,29.99,NNW,342,3.0,-999.0,57,0.00,,,0.00,Custom/Perl,2013-04-16 18:30:00,
2013-04-16 13:36:00,46.4,37.6,29.98,North,356,1.0,-999.0,56,0.00,,,0.00,Custom/Perl,2013-04-16 18:36:00,
2013-04-16 13:41:00,46.1,37.3,29.99,SW,220,3.0,-999.0,56,0.00,,,0.00,Custom/Perl,2013-04-16 18:41:00,
2013-04-16 13:46:00,46.0,37.4,29.98,NNW,335,1.0,-999.0,57,0.00,,,0.00,Custom/Perl,2013-04-16 18:46:00,
2013-04-16 13:51:00,46.0,37.2,29.99,North,6,8.0,-999.0,56,0.00,,,0.00,Custom/Perl,2013-04-16 18:51:00,
2013-04-16 13:56:00,45.9,37.5,29.98,SW,225,0.0,-999.0,58,0.00,,,0.00,Custom/Perl,2013-04-16 18:56:00,
2013-04-16 14:02:00,46.1,37.3,29.98,West,271,1.0,-999.0,56,0.00,,,0.00,Custom/Perl,2013-04-16 19:02:00,
2013-04-16 14:07:00,46.1,37.3,29.98,NNE,24,2.0,-999.0,56,0.00,,,0.00,Custom/Perl,2013-04-16 19:07:00,
2013-04-16 14:12:00,46.3,37.3,29.98,West,279,1.0,-999.0,55,0.00,,,0.00,Custom/Perl,2013-04-16 19:12:00,
2013-04-16 14:17:00,46.3,37.5,29.98,ENE,70,8.0,-999.0,56,0.00,,,0.00,Custom/Perl,2013-04-16 19:17:00,
2013-04-16 14:23:00,46.3,37.5,29.98,NNW,328,3.0,-999.0,56,0.00,,,0.00,Custom/Perl,2013-04-16 19:23:00,
2013-04-16 14:28:00,46.4,37.6,29.98,NE,55,3.0,-999.0,56,0.00,,,0.00,Custom/Perl,2013-04-16 19:28:00,
2013-04-16 14:33:00,46.3,37.3,29.98,SE,127,3.0,-999.0,55,0.00,,,0.00,Custom/Perl,2013-04-16 19:33:00,
2013-04-16 14:38:00,46.1,37.1,29.98,SSW,212,1.0,-999.0,55,0.00,,,0.00,Custom/Perl,2013-04-16 19:38:00,
2013-04-16 14:43:00,46.1,37.1,29.98,NE,56,6.0,-999.0,55,0.00,,,0.00,Custom/Perl,2013-04-16 19:43:00,
2013-04-16 14:49:00,46.1,37.3,29.98,NNW,344,2.0,-999.0,56,0.00,,,0.00,Custom/Perl,2013-04-16 19:49:00,
2013-04-16 14:54:00,46.2,37.4,29.98,North,351,3.0,-999.0,56,0.00,,,0.00,Custom/Perl,2013-04-16 19:54:00,
2013-04-16 14:59:00,46.2,37.4,29.98,SE,136,6.0,-999.0,56,0.00,,,0.00,Custom/Perl,2013-04-16 19:59:00,
2013-04-16 15:04:00,46.3,37.3,29.98,ESE,105,4.0,-999.0,55,0.00,,,0.00,Custom/Perl,2013-04-16 20:04:00,
2013-04-16 15:10:00,46.4,37.4,29.98,NE,51,3.0,-999.0,55,0.00,,,0.00,Custom/Perl,2013-04-16 20:10:00,
2013-04-16 15:15:00,46.5,37.5,29.98,SW,228,2.0,-999.0,55,0.00,,,0.00,Custom/Perl,2013-04-16 20:15:00,
2013-04-16 15:20:00,46.7,37.7,29.98,ESE,116,3.0,-999.0,55,0.00,,,0.00,Custom/Perl,2013-04-16 20:20:00,
2013-04-16 15:25:00,46.7,37.7,29.98,NNE,18,2.0,-999.0,55,0.00,,,0.00,Custom/Perl,2013-04-16 20:25:00,
2013-04-16 15:31:00,46.7,37.7,29.97,West,259,2.0,-999.0,55,0.00,,,0.00,Custom/Perl,2013-04-16 20:31:00,
2013-04-16 15:36:00,46.6,37.4,29.98,WSW,256,5.0,-999.0,54,0.00,,,0.00,Custom/Perl,2013-04-16 20:36:00,
2013-04-16 15:41:00,46.7,37.7,29.98,East,92,3.0,-999.0,55,0.00,,,0.00,Custom/Perl,2013-04-16 20:41:00,
2013-04-16 15:46:00,46.7,37.7,29.98,NW,326,5.0,-999.0,55,0.00,,,0.00,Custom/Perl,2013-04-16 20:46:00,
2013-04-16 15:52:00,46.7,37.7,29.97,SW,224,1.0,-999.0,55,0.00,,,0.00,Custom/Perl,2013-04-16 20:52:00,
2013-04-16 15:57:00,46.7,37.7,29.97,NNW,338,2.0,-999.0,55,0.00,,,0.00,Custom/Perl,2013-04-16 20:57:00,
2013-04-16 16:02:00,46.8,38.0,29.96,SSW,201,2.0,-999.0,56,0.00,,,0.00,Custom/Perl,2013-04-16 21:02:00,
2013-04-16 16:07:00,46.9,38.1,29.96,NNE,25,2.0,-999.0,56,0.00,,,0.00,Custom/Perl,2013-04-16 21:07:00,
2013-04-16 16:13:00,46.8,38.0,29.97,NNE,18,5.0,-999.0,56,0.00,,,0.00,Custom/Perl,2013-04-16 21:13:00,
2013-04-16 16:18:00,46.7,37.9,29.97,North,359,1.0,-999.0,56,0.00,,,0.00,Custom/Perl,2013-04-16 21:18:00,
2013-04-16 16:23:00,46.8,38.2,29.96,SW,221,4.0,-999.0,57,0.00,,,0.00,Custom/Perl,2013-04-16 21:23:00,
2013-04-16 16:28:00,46.9,38.3,29.96,NNW,340,2.0,-999.0,57,0.00,,,0.00,Custom/Perl,2013-04-16 21:28:00,
2013-04-16 16:33:00,47.0,38.4,29.96,East,81,3.0,-999.0,57,0.00,,,0.00,Custom/Perl,2013-04-16 21:33:00,
2013-04-16 16:39:00,47.1,38.5,29.96,North,4,3.0,-999.0,57,0.00,,,0.00,Custom/Perl,2013-04-16 21:39:00,
2013-04-16 16:44:00,47.0,38.6,29.96,NNE,17,4.0,-999.0,58,0.00,,,0.00,Custom/Perl,2013-04-16 21:44:00,
2013-04-16 16:49:00,47.1,38.5,29.95,South,191,1.0,-999.0,57,0.00,,,0.00,Custom/Perl,2013-04-16 21:49:00,
2013-04-16 16:54:00,47.1,38.3,29.96,SSW,196,2.0,-999.0,56,0.00,,,0.00,Custom/Perl,2013-04-16 21:54:00,
2013-04-16 16:59:00,47.1,38.5,29.96,WSW,257,0.0,-999.0,57,0.00,,,0.00,Custom/Perl,2013-04-16 21:59:00,
2013-04-16 17:05:00,47.2,38.6,29.96,SSW,198,3.0,-999.0,57,0.00,,,0.00,Custom/Perl,2013-04-16 22:05:00,
2013-04-16 17:10:00,47.2,38.6,29.96,WSW,237,0.0,-999.0,57,0.00,,,0.00,Custom/Perl,2013-04-16 22:10:00,
2013-04-16 17:15:00,47.2,38.6,29.96,West,280,3.0,-999.0,57,0.00,,,0.00,Custom/Perl,2013-04-16 22:15:00,
2013-04-16 17:20:00,47.1,38.7,29.96,ESE,105,3.0,-999.0,58,0.00,,,0.00,Custom/Perl,2013-04-16 22:20:00,
2013-04-16 17:25:00,47.1,38.7,29.96,WSW,243,1.0,-999.0,58,0.00,,,0.00,Custom/Perl,2013-04-16 22:25:00,
2013-04-16 17:31:00,47.2,38.8,29.96,East,96,4.0,-999.0,58,0.00,,,0.00,Custom/Perl,2013-04-16 22:31:00,
2013-04-16 17:36:00,47.2,38.8,29.95,West,277,2.0,-999.0,58,0.00,,,0.00,Custom/Perl,2013-04-16 22:36:00,
2013-04-16 17:41:00,47.2,38.8,29.95,WNW,289,2.0,-999.0,58,0.00,,,0.00,Custom/Perl,2013-04-16 22:41:00,
2013-04-16 17:46:00,47.2,38.8,29.95,NNE,15,4.0,-999.0,58,0.00,,,0.00,Custom/Perl,2013-04-16 22:46:00,
2013-04-16 17:52:00,47.2,38.8,29.95,South,187,2.0,-999.0,58,0.00,,,0.00,Custom/Perl,2013-04-16 22:52:00,
2013-04-16 17:57:00,47.3,38.9,29.95,NNE,30,1.0,-999.0,58,0.00,,,0.00,Custom/Perl,2013-04-16 22:57:00,
2013-04-16 18:02:00,47.5,39.1,29.95,NNE,20,1.0,-999.0,58,0.00,,,0.00,Custom/Perl,2013-04-16 23:02:00,
2013-04-16 18:07:00,47.4,39.0,29.96,South,180,1.0,-999.0,58,0.00,,,0.00,Custom/Perl,2013-04-16 23:07:00,
2013-04-16 18:12:00,47.3,38.9,29.96,SW,223,1.0,-999.0,58,0.00,,,0.00,Custom/Perl,2013-04-16 23:12:00,
2013-04-16 18:18:00,47.3,39.1,29.96,NW,309,0.0,-999.0,59,0.00,,,0.00,Custom/Perl,2013-04-16 23:18:00,
2013-04-16 18:23:00,47.3,39.1,29.95,West,261,0.0,-999.0,59,0.00,,,0.00,Custom/Perl,2013-04-16 23:23:00,
2013-04-16 18:28:00,47.3,39.1,29.95,WNW,289,2.0,-999.0,59,0.00,,,0.00,Custom/Perl,2013-04-16 23:28:00,
2013-04-16 18:33:00,47.3,39.1,29.95,North,7,3.0,-999.0,59,0.00,,,0.00,Custom/Perl,2013-04-16 23:33:00,
2013-04-16 18:39:00,47.2,39.2,29.95,WSW,240,1.0,-999.0,60,0.00,,,0.00,Custom/Perl,2013-04-16 23:39:00,
2013-04-16 18:44:00,47.2,39.2,29.95,NE,41,4.0,-999.0,60,0.00,,,0.00,Custom/Perl,2013-04-16 23:44:00,
2013-04-16 18:49:00,47.2,39.2,29.95,NW,323,2.0,-999.0,60,0.00,,,0.00,Custom/Perl,2013-04-16 23:49:00,
2013-04-16 18:54:00,47.2,39.2,29.95,North,351,1.0,-999.0,60,0.00,,,0.00,Custom/Perl,2013-04-16 23:54:00,
2013-04-16 18:59:00,47.2,39.2,29.95,East,79,3.0,-999.0,60,0.00,,,0.00,Custom/Perl,2013-04-16 23:59:00,
2013-04-16 19:05:00,47.1,39.1,29.95,NW,316,2.0,-999.0,60,0.00,,,0.00,Custom/Perl,2013-04-17 00:05:00,
2013-04-16 19:10:00,47.1,39.3,29.95,West,264,0.0,-999.0,61,0.00,,,0.00,Custom/Perl,2013-04-17 00:10:00,
2013-04-16 19:15:00,47.0,39.0,29.95,SW,217,0.0,-999.0,60,0.00,,,0.00,Custom/Perl,2013-04-17 00:15:00,
2013-04-16 19:20:00,46.9,38.9,29.95,NE,39,1.0,-999.0,60,0.00,,,0.00,Custom/Perl,2013-04-17 00:20:00,
2013-04-16 19:25:00,46.8,39.0,29.95,SSW,213,0.0,-999.0,61,0.00,,,0.00,Custom/Perl,2013-04-17 00:25:00,
2013-04-16 19:31:00,46.8,39.0,29.95,North,350,3.0,-999.0,61,0.00,,,0.00,Custom/Perl,2013-04-17 00:31:00,
2013-04-16 19:36:00,46.7,38.9,29.95,WSW,238,1.0,-999.0,61,0.00,,,0.00,Custom/Perl,2013-04-17 00:36:00,
2013-04-16 19:41:00,46.7,39.1,29.95,WNW,285,1.0,-999.0,62,0.00,,,0.00,Custom/Perl,2013-04-17 00:41:00,
2013-04-16 19:46:00,46.6,39.0,29.95,SW,232,2.0,-999.0,62,0.00,,,0.00,Custom/Perl,2013-04-17 00:46:00,
2013-04-16 19:51:00,46.6,39.2,29.95,South,171,0.0,-999.0,63,0.00,,,0.00,Custom/Perl,2013-04-17 00:51:00,
2013-04-16 19:57:00,46.5,39.1,29.95,NNE,25,3.0,-999.0,63,0.00,,,0.00,Custom/Perl,2013-04-17 00:57:00,
2013-04-16 20:02:00,46.5,39.1,29.95,WSW,250,1.0,-999.0,63,0.00,,,0.00,Custom/Perl,2013-04-17 01:02:00,
2013-04-16 20:07:00,46.5,39.3,29.95,WNW,294,1.0,-999.0,64,0.00,,,0.00,Custom/Perl,2013-04-17 01:07:00,
2013-04-16 20:12:00,46.4,39.4,29.95,WNW,291,1.0,-999.0,65,0.00,,,0.00,Custom/Perl,2013-04-17 01:12:00,
2013-04-16 20:18:00,46.4,39.4,29.95,SW,219,1.0,-999.0,65,0.00,,,0.00,Custom/Perl,2013-04-17 01:18:00,
2013-04-16 20:23:00,46.4,39.6,29.95,North,350,2.0,-999.0,66,0.00,,,0.00,Custom/Perl,2013-04-17 01:23:00,
2013-04-16 20:28:00,46.3,39.5,29.95,SSW,213,2.0,-999.0,66,0.00,,,0.00,Custom/Perl,2013-04-17 01:28:00,
2013-04-16 20:33:00,46.3,39.5,29.95,WNW,290,1.0,-999.0,66,0.00,,,0.00,Custom/Perl,2013-04-17 01:33:00,
2013-04-16 20:38:00,46.3,39.5,29.95,West,274,0.0,-999.0,66,0.00,,,0.00,Custom/Perl,2013-04-17 01:38:00,
2013-04-16 20:44:00,46.3,39.5,29.95,SW,225,0.0,-999.0,66,0.00,,,0.00,Custom/Perl,2013-04-17 01:44:00,
2013-04-16 20:49:00,46.3,39.7,29.95,WNW,297,1.0,-999.0,67,0.00,,,0.00,Custom/Perl,2013-04-17 01:49:00,
2013-04-16 20:54:00,46.3,39.7,29.95,SW,230,2.0,-999.0,67,0.00,,,0.00,Custom/Perl,2013-04-17 01:54:00,
2013-04-16 20:59:00,46.3,39.5,29.95,North,11,6.0,-999.0,66,0.00,,,0.00,Custom/Perl,2013-04-17 01:59:00,
2013-04-16 21:05:00,46.3,39.7,29.95,SE,143,2.0,-999.0,67,0.00,,,0.00,Custom/Perl,2013-04-17 02:05:00,
2013-04-16 21:10:00,46.2,39.6,29.95,NNW,348,0.0,-999.0,67,0.00,,,0.00,Custom/Perl,2013-04-17 02:10:00,
2013-04-16 21:15:00,46.2,39.8,29.95,WNW,291,0.0,-999.0,68,0.00,,,0.00,Custom/Perl,2013-04-17 02:15:00,
2013-04-16 21:20:00,46.2,39.6,29.95,SW,231,2.0,-999.0,67,0.00,,,0.00,Custom/Perl,2013-04-17 02:20:00,
2013-04-16 21:26:00,46.1,39.7,29.95,NNW,338,2.0,-999.0,68,0.00,,,0.00,Custom/Perl,2013-04-17 02:26:00,
2013-04-16 21:31:00,46.1,39.7,29.95,WNW,300,0.0,-999.0,68,0.00,,,0.00,Custom/Perl,2013-04-17 02:31:00,
2013-04-16 21:36:00,46.1,39.7,29.95,WNW,284,0.0,-999.0,68,0.00,,,0.00,Custom/Perl,2013-04-17 02:36:00,
2013-04-16 21:41:00,46.0,39.6,29.95,SW,229,1.0,-999.0,68,0.00,,,0.00,Custom/Perl,2013-04-17 02:41:00,
2013-04-16 21:46:00,46.0,39.6,29.95,SSW,208,1.0,-999.0,68,0.00,,,0.00,Custom/Perl,2013-04-17 02:46:00,
2013-04-16 21:52:00,46.0,39.6,29.95,NE,43,3.0,-999.0,68,0.00,,,0.00,Custom/Perl,2013-04-17 02:52:00,
2013-04-16 21:57:00,45.9,39.5,29.95,NE,42,2.0,-999.0,68,0.00,,,0.00,Custom/Perl,2013-04-17 02:57:00,
2013-04-16 22:02:00,45.9,39.5,29.95,NE,37,3.0,-999.0,68,0.00,,,0.00,Custom/Perl,2013-04-17 03:02:00,
2013-04-16 22:07:00,45.9,39.7,29.95,West,264,1.0,-999.0,69,0.00,,,0.00,Custom/Perl,2013-04-17 03:07:00,
2013-04-16 22:13:00,45.9,39.7,29.95,WNW,288,0.0,-999.0,69,0.00,,,0.00,Custom/Perl,2013-04-17 03:13:00,
2013-04-16 22:18:00,45.9,39.7,29.96,West,276,1.0,-999.0,69,0.00,,,0.00,Custom/Perl,2013-04-17 03:18:00,
2013-04-16 22:23:00,45.9,39.7,29.95,WNW,285,2.0,-999.0,69,0.00,,,0.00,Custom/Perl,2013-04-17 03:23:00,
2013-04-16 22:28:00,45.8,39.6,29.96,East,79,5.0,-999.0,69,0.00,,,0.00,Custom/Perl,2013-04-17 03:28:00,
2013-04-16 22:34:00,45.8,39.6,29.95,SE,127,4.0,-999.0,69,0.00,,,0.00,Custom/Perl,2013-04-17 03:34:00,
2013-04-16 22:39:00,45.7,39.7,29.94,WSW,240,2.0,-999.0,70,0.00,,,0.00,Custom/Perl,2013-04-17 03:39:00,
2013-04-16 22:44:00,45.7,39.7,29.96,North,2,1.0,-999.0,70,0.00,,,0.00,Custom/Perl,2013-04-17 03:44:00,
2013-04-16 22:49:00,45.7,39.7,29.95,NE,48,1.0,-999.0,70,0.00,,,0.00,Custom/Perl,2013-04-17 03:49:00,
2013-04-16 22:55:00,45.7,39.9,29.94,WSW,258,1.0,-999.0,71,0.00,,,0.00,Custom/Perl,2013-04-17 03:55:00,
2013-04-16 23:00:00,45.6,40.0,29.96,NW,307,0.0,-999.0,72,0.00,,,0.00,Custom/Perl,2013-04-17 04:00:00,
2013-04-16 23:01:00,45.6,40.0,29.96,North,359,1.0,-999.0,72,0.00,,,0.00,Custom/Perl,2013-04-17 04:01:00,
2013-04-16 23:03:00,45.6,40.0,29.95,NW,310,0.0,-999.0,72,0.00,,,0.00,Custom/Perl,2013-04-17 04:03:00,
2013-04-16 23:06:00,45.6,40.0,29.95,WNW,300,2.0,-999.0,72,0.00,,,0.00,Custom/Perl,2013-04-17 04:06:00,
2013-04-16 23:11:00,45.5,39.9,29.95,West,267,1.0,-999.0,72,0.00,,,0.00,Custom/Perl,2013-04-17 04:11:00,
2013-04-16 23:17:00,45.5,39.9,29.96,NW,326,0.0,-999.0,72,0.00,,,0.00,Custom/Perl,2013-04-17 04:17:00,
2013-04-16 23:22:00,45.5,39.9,29.95,North,354,1.0,-999.0,72,0.00,,,0.00,Custom/Perl,2013-04-17 04:22:00,
2013-04-16 23:27:00,45.5,40.1,29.95,West,262,0.0,-999.0,73,0.00,,,0.00,Custom/Perl,2013-04-17 04:27:00,
2013-04-16 23:33:00,45.4,39.8,29.95,NW,308,2.0,-999.0,72,0.00,,,0.00,Custom/Perl,2013-04-17 04:33:00,
2013-04-16 23:38:00,45.4,40.0,29.95,North,1,3.0,-999.0,73,0.00,,,0.00,Custom/Perl,2013-04-17 04:38:00,
2013-04-16 23:43:00,45.4,40.0,29.95,West,271,1.0,-999.0,73,0.00,,,0.00,Custom/Perl,2013-04-17 04:43:00,
2013-04-16 23:48:00,45.4,40.0,29.95,WNW,299,0.0,-999.0,73,0.00,,,0.00,Custom/Perl,2013-04-17 04:48:00,
2013-04-16 23:54:00,45.4,40.0,29.95,NW,311,0.0,-999.0,73,0.00,,,0.00,Custom/Perl,2013-04-17 04:54:00,
2013-04-16 23:59:00,45.4,40.0,29.95,WSW,255,1.0,-999.0,73,0.00,,,0.00,Custom/Perl,2013-04-17 04:59:00,